Simultaneous Nadir Overpasses (SNOs) Predictions

Prediction of SNOs between METOP-C and LANDSAT-8 Satellite Orbit:

Table of predicted SNOs for the next 14.0 days since TLE Epoch: 11/22/2025
Index Date (METOP-C) Time (METOP-C) Lat,Lon (METOP-C) SZA (METOP-C ) Date (LANDSAT-8) Time (LANDSAT-8) Lat,Lon (LANDSAT-8) SZA (LANDSAT-8 ) Distance(km) Time Diff (sec)
1 11/24/2025 18:50:42 -81.12, 116.89 75.95 11/24/2025 18:51:34 -81.12, 116.89 75.93 0.12 52
2 11/24/2025 19:41:20 81.15, -74.91 104.17 11/24/2025 19:40:59 81.14, -75.04 104.15 2.17 21
3 11/27/2025 14:25:02 -81.11,-176.80 75.46 11/27/2025 14:25:48 -81.11,-176.74 75.44 0.95 46
4 11/27/2025 15:15:40 81.14, -8.64 104.66 11/27/2025 15:15:13 81.14, -8.70 104.63 1.17 27
5 11/30/2025 09:59:22 -81.12,-110.18 74.99 11/30/2025 10:00:02 -81.12,-110.19 74.97 0.08 40
6 11/30/2025 10:50:00 81.15, 57.95 105.12 11/30/2025 10:49:27 81.14, 57.83 105.09 1.98 33
7 12/03/2025 05:33:42 -81.12, -43.64 74.58 12/03/2025 05:34:16 -81.11, -43.80 74.59 2.92 34
8 12/03/2025 06:24:21 81.14, 124.08 105.48 12/03/2025 06:23:41 81.14, 124.20 105.47 1.99 40
9 12/06/2025 01:08:01 -81.13, 22.82 74.24 12/06/2025 01:08:28 -81.12, 22.77 74.24 0.90 27



Historial Predications of SNOs between METOP-C and LANDSAT-8
